,

(GMT )
Resia Pass

Weather History for LIVE - July, 2013

Change the Weather History Date:

Thursday, July 18, 2013

  Actual Average Record
Temperature  
Mean Temperature 61 °F -  
Max Temperature 69 °F 67 °F 78 °F (2016)
Min Temperature 53 °F 48 °F 37 °F (2000)
Degree Days  
Heating Degree Days 4    
Growing Degree Days 11 (Base 50)    
Moisture  
Dew Point 54 °F    
Average Humidity 79    
Maximum Humidity 100    
Minimum Humidity 49    
Precipitation  
Precipitation 0.00 in - - ()
Sea Level Pressure  
Sea Level Pressure 30.25 in    
Wind  
Wind Speed 4 mph ()    
Max Wind Speed 10 mph    
Max Gust Speed -    
Visibility 6.2 miles    
Events Rain , Thunderstorm    
Averages and records for this station are not official NWS values.
T = Trace of Precipitation, MM = Missing Value Source: Averaged Metar Reports

Daily Weather History Graph

Daily Weather History Graph

Search for Another Location

Airport or City:

Trip Planner

Search our weather history database for the weather conditions in past years. The results will help you decide how hot, cold, wet, or windy it might be!

Date:

Astronomy

Jul. 18, 2013 Rise Set
Actual Time 5:41 AM CEST 9:06 PM CEST
Civil Twilight 5:04 AM CEST 9:43 PM CEST
Nautical Twilight 4:15 AM CEST 10:32 PM CEST
Astronomical Twilight 3:10 AM CEST 11:35 PM CEST
Moon 4:41 PM CEST (7/18) 1:24 AM CEST (7/18)
Length of Visible Light 16h 38m
Length of Day
15h 24m
Waxing Gibbous, 75% of the Moon is Illuminated
Jul 18
Waxing Gibbous
Jul 22
Full
Jul 29
Last Quarter
Aug 6
New
Aug 14
First Quarter

Hourly Weather History & Observations

Time (CEST) Temp. Dew Point Humidity Pressure Visibility Wind Dir Wind Speed Gust Speed Precip Events Conditions
12:55 AM 59.0 °F 59.0 °F 100% 30.27 in 6.2 mi NNW 3.5 mph - N/A Rain Light Rain
1:55 AM 57.2 °F 57.2 °F 100% 30.27 in 6.2 mi Calm Calm - N/A Rain Light Rain
2:55 AM 57.2 °F 57.2 °F 100% 30.27 in 6.2 mi South 3.5 mph - N/A   Overcast
3:55 AM 57.2 °F 57.2 °F 100% 30.30 in 6.2 mi South 3.5 mph - N/A   Scattered Clouds
7:55 AM 53.6 °F 53.6 °F 100% 30.27 in - NNE 3.5 mph - N/A   Clear
8:55 AM 57.2 °F 55.4 °F 94% 30.27 in - North 3.5 mph - N/A   Clear
9:55 AM 60.8 °F 48.2 °F 63% 30.24 in - NNW 4.6 mph - N/A   Clear
10:55 AM 64.4 °F 55.4 °F 73% 30.24 in - South 5.8 mph - N/A   Clear
11:55 AM 66.2 °F 51.8 °F 60% 30.24 in 6.2 mi South 8.1 mph - N/A   Scattered Clouds
12:55 PM 66.2 °F 51.8 °F 60% 30.24 in 6.2 mi ESE 9.2 mph - N/A   Scattered Clouds
1:55 PM 68.0 °F 51.8 °F 56% 30.24 in 6.2 mi South 9.2 mph - N/A   Scattered Clouds
2:55 PM 68.0 °F 51.8 °F 56% 30.24 in 6.2 mi SSE 6.9 mph - N/A   Scattered Clouds
3:55 PM 68.0 °F 51.8 °F 56% 30.24 in 6.2 mi South 8.1 mph - N/A   Scattered Clouds
4:55 PM 69.8 °F 50.0 °F 49% 30.21 in 6.2 mi South 9.2 mph - N/A   Scattered Clouds
5:55 PM 68.0 °F 53.6 °F 60% 30.21 in 6.2 mi SSE 8.1 mph - N/A   Scattered Clouds
6:55 PM 68.0 °F 55.4 °F 64% 30.21 in 6.2 mi South 10.4 mph - N/A Thunderstorm Thunderstorm
7:55 PM 62.6 °F 57.2 °F 82% 30.24 in 6.2 mi South 3.5 mph - N/A Rain , Thunderstorm Light Thunderstorms and Rain
8:55 PM 57.2 °F 57.2 °F 100% 30.24 in 6.2 mi NNE 4.6 mph - N/A Rain , Thunderstorm Light Thunderstorms and Rain
9:55 PM 57.2 °F 57.2 °F 100% 30.27 in 6.2 mi North 6.9 mph - N/A Rain Light Rain
10:55 PM 57.2 °F 55.4 °F 94% 30.27 in 6.2 mi North 3.5 mph - N/A   Mostly Cloudy
11:55 PM 55.4 °F 55.4 °F 100% 30.27 in 6.2 mi NNE 3.5 mph - N/A   Scattered Clouds